When you browse on this site, cookies collect data to enhance your experience and personalize the content and advertising you see.
Visit our Privacy Policy to learn more. By continuing to use the site, you agree to this use of cookies and data.
  • In Hungary
  • List of Countries
  • For 7 days
  • Water Temperature
  • Satellite Maps
  • Weather Map
  • News
  • Weather Widgets
  • user-avatar
    Login

    Hourly Weather Sloboda

    Today, 14 December, Friday

    Time Temperature Precipitation Wind Pressure Humidity
    00:00 -4°C° 0.1 mm 4 mps 720 mmHg 100%
    01:00 -4°C° 0.1 mm 4 mps 720 mmHg 100%
    02:00 -2°C° 0 mm 1 mps 720 mmHg 92%
    03:00 -5°C° 0 mm 3 mps 721 mmHg 100%
    04:00 -5°C° 0.1 mm 3 mps 721 mmHg 100%
    05:00 -5°C° 0.1 mm 3 mps 721 mmHg 100%
    06:00 -5°C° 0 mm 3 mps 721 mmHg 100%
    07:00 -5°C° 0 mm 3 mps 721 mmHg 100%
    08:00 -5°C° 0 mm 3 mps 721 mmHg 100%
    09:00 -5°C° 0 mm 3 mps 722 mmHg 100%
    10:00 -5°C° 0 mm 3 mps 722 mmHg 100%
    11:00 -4°C° 0 mm 2 mps 722 mmHg 100%
    12:00 -3°C° 0 mm 2 mps 722 mmHg 100%
    13:00 -3°C° 0 mm 2 mps 722 mmHg 100%
    14:00 -3°C° 0 mm 2 mps 723 mmHg 100%
    15:00 -1°C° 0.1 mm 1 mps 723 mmHg 100%
    16:00 -1°C° 0.1 mm 1 mps 723 mmHg 100%
    17:00 -2°C° 0.1 mm 1 mps 723 mmHg 100%
    18:00 -2°C° 0.1 mm 1 mps 723 mmHg 100%
    19:00 -2°C° 0.1 mm 1 mps 723 mmHg 100%
    20:00 -2°C° 0.1 mm 1 mps 723 mmHg 100%
    21:00 -2°C° 0.2 mm 1 mps 723 mmHg 100%
    22:00 -3°C° 0.2 mm 1 mps 724 mmHg 100%
    23:00 -5°C° 0.1 mm 2 mps 724 mmHg 100%

    Tomorrow, 15 December, Saturday

    Time Temperature Precipitation Wind Pressure Humidity
    00:00 -5°C° 0.1 mm 2 mps 724 mmHg 100%
    01:00 -6°C° 0 mm 2 mps 724 mmHg 100%
    02:00 -6°C° 0.1 mm 2 mps 724 mmHg 100%
    03:00 -7°C° 0.1 mm 2 mps 724 mmHg 100%
    04:00 -7°C° 0.1 mm 2 mps 724 mmHg 100%
    05:00 -7°C° 0.1 mm 2 mps 724 mmHg 100%
    06:00 -7°C° 0 mm 2 mps 723 mmHg 100%
    07:00 -7°C° 0 mm 2 mps 724 mmHg 100%
    08:00 -7°C° 0.1 mm 2 mps 724 mmHg 100%
    09:00 -7°C° 0.1 mm 2 mps 724 mmHg 100%
    10:00 -7°C° 0.1 mm 2 mps 724 mmHg 100%
    11:00 -8°C° 0.1 mm 3 mps 724 mmHg 100%
    12:00 -8°C° 0.1 mm 3 mps 724 mmHg 100%
    13:00 -8°C° 0.1 mm 3 mps 724 mmHg 100%
    14:00 -8°C° 0.5 mm 3 mps 723 mmHg 100%
    15:00 -8°C° 0.6 mm 3 mps 723 mmHg 100%
    16:00 -8°C° 0.3 mm 3 mps 723 mmHg 100%
    17:00 -10°C° 0.3 mm 4 mps 723 mmHg 100%
    18:00 -10°C° 0.5 mm 4 mps 723 mmHg 100%
    19:00 -10°C° 0.6 mm 4 mps 723 mmHg 100%
    20:00 -10°C° 0.5 mm 4 mps 722 mmHg 100%
    21:00 -11°C° 0.4 mm 5 mps 722 mmHg 100%
    22:00 -11°C° 0.4 mm 5 mps 722 mmHg 100%
    23:00 -11°C° 0.4 mm 5 mps 722 mmHg 100%

    Day after tomorrow, 16 December, Sunday

    Time Temperature Precipitation Wind Pressure Humidity
    00:00 -11°C° 0.3 mm 5 mps 721 mmHg 100%
    01:00 -12°C° 0.3 mm 5 mps 721 mmHg 100%
    02:00 -12°C° 0.3 mm 5 mps 720 mmHg 100%
    03:00 -12°C° 0.1 mm 5 mps 720 mmHg 100%
    04:00 -12°C° 0.4 mm 5 mps 719 mmHg 100%
    05:00 -12°C° 0.4 mm 5 mps 719 mmHg 100%
    06:00 -12°C° 0.2 mm 5 mps 719 mmHg 100%
    07:00 -11°C° 0.1 mm 4 mps 719 mmHg 100%
    08:00 -12°C° 0 mm 4 mps 719 mmHg 100%
    09:00 -11°C° 0 mm 4 mps 719 mmHg 100%
    10:00 -10°C° 0 mm 3 mps 720 mmHg 100%
    11:00 -9°C° 0 mm 3 mps 720 mmHg 100%
    12:00 -8°C° 0 mm 3 mps 720 mmHg 100%
    13:00 -7°C° 0 mm 3 mps 720 mmHg 100%
    14:00 -6°C° 0 mm 3 mps 720 mmHg 100%
    15:00 -5°C° 0 mm 2 mps 720 mmHg 100%
    16:00 -6°C° 0 mm 2 mps 720 mmHg 100%
    17:00 -6°C° 0 mm 2 mps 720 mmHg 100%
    18:00 -4°C° 0 mm 1 mps 720 mmHg 100%
    19:00 -4°C° 0 mm 1 mps 721 mmHg 100%
    20:00 -3°C° 0 mm 1 mps 721 mmHg 100%
    21:00 -2°C° 0 mm 1 mps 721 mmHg 100%
    22:00 -1°C° 0 mm 1 mps 721 mmHg 100%
    23:00 -1°C° 0 mm 0 mps 722 mmHg 100%

    17 December, Monday

    Time Temperature Precipitation Wind Pressure Humidity
    00:00 -1°C° 0 mm 0 mps 722 mmHg 99%
    01:00 -1°C° 0 mm 0 mps 722 mmHg 99%
    02:00 0°C° 0 mm 1 mps 722 mmHg 100%
    03:00 +1°C° 0 mm 1 mps 722 mmHg 99%
    04:00 +1°C° 0 mm 1 mps 722 mmHg 100%
    05:00 +1°C° 0 mm 1 mps 722 mmHg 100%
    06:00 +1°C° 0 mm 0 mps 722 mmHg 99%
    07:00 +1°C° 0.1 mm 0 mps 722 mmHg 100%
    08:00 +2°C° 0.1 mm 1 mps 722 mmHg 100%
    09:00 +1°C° 0 mm 0 mps 722 mmHg 100%
    10:00 +1°C° 0 mm 0 mps 723 mmHg 100%
    11:00 +1°C° 0 mm 0 mps 723 mmHg 100%
    12:00 +1°C° 0 mm 0 mps 723 mmHg 100%
    13:00 +2°C° 0.1 mm 1 mps 723 mmHg 100%
    14:00 +1°C° 0.2 mm 0 mps 723 mmHg 100%
    15:00 +1°C° 0.2 mm 1 mps 722 mmHg 100%
    16:00 +1°C° 0.4 mm 1 mps 722 mmHg 100%
    17:00 0°C° 0.7 mm 1 mps 723 mmHg 100%
    18:00 0°C° 0.9 mm 1 mps 723 mmHg 100%
    19:00 -1°C° 0.7 mm 1 mps 723 mmHg 100%
    20:00 -1°C° 0.7 mm 1 mps 723 mmHg 100%
    21:00 -1°C° 0.7 mm 1 mps 723 mmHg 100%
    22:00 -3°C° 0.6 mm 0 mps 724 mmHg 100%
    23:00 -3°C° 0.6 mm 0 mps 724 mmHg 100%

    18 December, Tuesday

    Time Temperature Precipitation Wind Pressure Humidity
    00:00 -2°C° 0.3 mm 1 mps 724 mmHg 100%
    01:00 -3°C° 0.2 mm 1 mps 723 mmHg 100%
    02:00 -4°C° 0.2 mm 0 mps 724 mmHg 100%

    19 December, Wednesday

    Time Temperature Precipitation Wind Pressure Humidity
    Show more